Weather History for KCDJ - January, 2013

Change the Weather History Date:

Saturday, January 19, 2013

  Actual Average (KIRK) Record (KIRK)
Temperature  
Mean Temperature 47 °F 26 °F  
Max Temperature 60 °F 35 °F - ()
Min Temperature 34 °F 17 °F - ()
Degree Days  
Heating Degree Days 18 39  
Month to date heating degree days 741  
Since 1 July heating degree days 3084  
Cooling Degree Days 0 0  
Month to date cooling degree days 0  
Year to date cooling degree days 0  
Moisture  
Dew Point 28 °F    
Average Humidity 54    
Maximum Humidity 79    
Minimum Humidity 28    
Precipitation  
Precipitation 0.00 in 0.04 in - ()
Month to date precipitation 0.64  
Year to date precipitation 0.64  
Sea Level Pressure  
Sea Level Pressure 30.05 in    
Wind  
Wind Speed 8 mph (WSW)    
Max Wind Speed 12 mph    
Max Gust Speed 20 mph    
T = Trace of Precipitation, MM = Missing Value Source: NWS Daily Summary

Daily Weather History Graph

Daily Weather History Graph

Search for Another Location

Airport or City:

Trip Planner

Search our weather history database for the weather conditions in past years. The results will help you decide how hot, cold, wet, or windy it might be!

Date:

Astronomy

Jan. 19, 2013 Rise Set
Actual Time 7:31 AM CST 5:18 PM CST
Civil Twilight 7:02 AM CST 5:48 PM CST
Nautical Twilight 6:29 AM CST 6:21 PM CST
Astronomical Twilight 5:57 AM CST 6:53 PM CST
Moon 11:45 AM CST (1/19) 1:06 AM CST (1/19)
Length of Visible Light 10h 45m
Length of Day
9h 47m
First Quarter, 57% of the Moon is Illuminated
Jan 19
First Quarter
Jan 26
Full
Feb 3
Last Quarter
Feb 10
New
Feb 17
First Quarter

Hourly Weather History & Observations

Time (CST) Temp. Windchill Dew Point Humidity Pressure Visibility Wind Dir Wind Speed Gust Speed Precip Events Conditions
12:52 AM 39.9 °F 34.5 °F 28.9 °F 65% 30.01 in - SSW 8.1 mph - N/A   Unknown
1:52 AM 39.0 °F 34.8 °F 28.9 °F 67% 30.01 in - South 5.8 mph - N/A   Unknown
2:52 AM 37.0 °F 31.6 °F 28.9 °F 73% 30.00 in - SSW 6.9 mph - N/A   Unknown
3:52 AM 37.0 °F 31.0 °F 28.9 °F 73% 29.98 in - SSW 8.1 mph - N/A   Unknown
4:52 AM 37.0 °F 30.4 °F 28.9 °F 73% 29.97 in - SSW 9.2 mph - N/A   Unknown
5:52 AM 37.9 °F 32.1 °F 28.9 °F 70% 29.97 in - SSW 8.1 mph - N/A   Unknown
6:52 AM 34.0 °F 28.8 °F 28.0 °F 79% 29.98 in - South 5.8 mph - N/A   Unknown
7:52 AM 37.9 °F 33.5 °F 28.9 °F 70% 29.97 in - SSW 5.8 mph - N/A   Unknown
8:52 AM 43.0 °F 37.2 °F 30.9 °F 62% 29.99 in - SW 10.4 mph - N/A   Unknown
9:52 AM 46.9 °F - 30.9 °F 54% 29.98 in - SW 10.4 mph 19.6 mph N/A   Unknown
10:52 AM 50.0 °F - 30.9 °F 48% 30.02 in - WSW 10.4 mph 18.4 mph N/A   Unknown
11:52 AM 52.0 °F - 30.9 °F 45% 29.99 in - WSW 8.1 mph 17.3 mph N/A   Unknown
12:52 PM 55.0 °F - 30.0 °F 38% 29.97 in - WSW 8.1 mph 17.3 mph N/A   Unknown
1:52 PM 57.9 °F - 28.9 °F 33% 29.96 in - West 9.2 mph - N/A   Unknown
2:52 PM 60.1 °F - 27.0 °F 28% 29.97 in - West 11.5 mph 18.4 mph N/A   Unknown
3:52 PM 59.0 °F - 27.0 °F 29% 29.99 in - West 11.5 mph 18.4 mph N/A   Unknown
4:52 PM 55.9 °F - 27.0 °F 33% 30.03 in - WNW 10.4 mph 19.6 mph N/A   Unknown
5:52 PM 52.0 °F - 27.0 °F 38% 30.08 in - WNW 9.2 mph - N/A   Unknown
6:52 PM 48.0 °F - 27.0 °F 44% 30.13 in - NW 6.9 mph - N/A   Unknown
7:52 PM 46.0 °F 43.1 °F 28.0 °F 50% 30.17 in - NW 5.8 mph - N/A   Unknown
8:52 PM 44.1 °F 40.1 °F 30.0 °F 58% 30.19 in - NW 6.9 mph - N/A   Unknown
9:52 PM 42.1 °F 37.7 °F 28.9 °F 60% 30.22 in - NW 6.9 mph - N/A   Unknown
10:52 PM 39.9 °F 34.5 °F 28.9 °F 65% 30.25 in - NNW 8.1 mph 16.1 mph N/A   Unknown
11:52 PM 36.0 °F 29.6 °F 18.0 °F 48% 30.28 in - NW 8.1 mph - N/A   Unknown